Hourly Data Report for October 12, 2016

All times are specified in Local Standard Time (LST). Add 1 hour to adjust for Daylight Saving Time where and when it is observed.

GJOA HAVEN A
NUNAVUT

68°38'08.000" N
95°51'01.000" W
46.90 m
2302337
71597
YHK

Download Data

Hourly Data (October 2016)
Hourly Data Report for October 12, 2016
Temp Definition
°C
Dew Point Temp Definition
°C
Rel Hum Definition
%
Wind Dir Definition
10's deg

Wind Spd Definition
km/h
Visibility Definition
km
Stn Press Definition
kPa
Hmdx Definition


Wind Chill Definition


Weather Definition


TIME
00:00 Legend Double Dagger -7.2 -10.1 80 3 22 16.1 100.65   -15 LegendNANA
01:00 Legend Double Dagger -7.3 -10.1 80 6 18 16.1 100.65   -14 Snow
02:00 Legend Double Dagger -7.4 -10.3 80 5 21 16.1 100.63   -15 LegendNANA
03:00 Legend Double Dagger -7.4 -10.1 81 6 21 16.1 100.61   -15 LegendNANA
04:00 Legend Double Dagger -7.5 -10.2 81 3 8 16.1 100.60   -12 LegendNANA
05:00 Legend Double Dagger -7.6 -10.3 81 7 18 16.1 100.59   -14 LegendNANA
06:00 Legend Double Dagger -7.7 -10.0 84 5 18 16.1 100.55   -15 LegendNANA
07:00 Legend Double Dagger -8.2 -10.0 87 4 15 16.1 100.52   -15 Snow
08:00 Legend Double Dagger -8.0 -9.8 87 4 22 16.1 100.49   -16 Snow
09:00 Legend Double Dagger -7.3 -9.3 86 5 18 16.1 100.48   -14 LegendNANA
10:00 Legend Double Dagger -7.5 -9.3 87 4 18 16.1 100.48   -14 LegendNANA
11:00 Legend Double Dagger -7.5 -9.5 86 5 15 16.1 100.47   -14 LegendNANA
12:00 Legend Double Dagger -7.0 -8.4 90 4 17 16.1 100.44   -13 Snow
13:00 Legend Double Dagger -7.0 -8.4 90 4 26 16.1 100.42   -15 LegendNANA
14:00 Legend Double Dagger -6.9 -7.7 94 6 28 14.5 100.43   -15 LegendNANA
15:00 Legend Double Dagger -6.9 -8.0 92 5 26 16.1 100.43   -15 Snow
16:00 Legend Double Dagger -7.0 -8.5 89 5 24 16.1 100.44   -15 LegendNANA
17:00 Legend Double Dagger -7.3 -8.5 91 4 28 16.1 100.45   -16 LegendNANA
18:00 Legend Double Dagger -6.8 -8.3 89 5 30 16.1 100.44   -15 LegendNANA
19:00 Legend Double Dagger -6.8 -7.9 92 6 28 16.1 100.44   -15 LegendNANA
20:00 Legend Double Dagger -6.3 -7.5 91 5 26 16.1 100.42   -14 LegendNANA
21:00 Legend Double Dagger -6.1 -7.7 88 5 37 16.1 100.39   -15 LegendNANA
22:00 Legend Double Dagger -5.8 -7.6 87 5 39 16.1 100.37   -15 Snow
23:00 Legend Double Dagger -5.4 -6.4 93 4 43 6.4 100.35   -15 Snow

Notes on Data Quality.

Legend

  • E = Estimated
  • M = Missing
  • NA = Not Available
  • ‡ = Partner data that is not subject to review by the National Climate Archives
Date modified: